This is the latest recevied weather packets stored in our database for station/object N0QV. If no packets are shown the sender has not sent any weather packets the latest 1 day(s).
| Time | Temp. | Humidity | Pressure | Rain* | Wind** | Luminosity | Snow |
|---|---|---|---|---|---|---|---|
| 1778006350 | 10.56° C | 37% | 1011.9 hPa | 0 mm | 1.34 m/s, 298° | 375 W/m² | - |
| 1778006047 | 10.56° C | 36% | 1012.1 hPa | 0 mm | 2.24 m/s, 304° | 464 W/m² | - |
| 1778005744 | 10.56° C | 38% | 1012.3 hPa | 0 mm | 0.89 m/s, 321° | 327 W/m² | - |
| 1778005440 | 10° C | 40% | 1012.1 hPa | 0 mm | 0.89 m/s, 253° | 363 W/m² | - |
| 1778005137 | 10° C | 40% | 1012.3 hPa | 0 mm | 1.34 m/s, 298° | 323 W/m² | - |
| 1778004834 | 10° C | 39% | 1012.2 hPa | 0 mm | 2.24 m/s, 271° | 300 W/m² | - |
| 1778004531 | 10.56° C | 38% | 1012.3 hPa | 0 mm | 1.79 m/s, 275° | 317 W/m² | - |
| 1778004227 | 10.56° C | 39% | 1012.5 hPa | 0 mm | 1.34 m/s, 310° | 363 W/m² | - |
| 1778003924 | 10° C | 40% | 1012.2 hPa | 0 mm | 1.79 m/s, 286° | 358 W/m² | - |
| 1778003620 | 10° C | 40% | 1012.3 hPa | 0 mm | 1.34 m/s, 250° | 390 W/m² | - |
| 1778003317 | 10° C | 39% | 1012.2 hPa | 0 mm | 0.89 m/s, 293° | 327 W/m² | - |
| 1778003015 | 10° C | 39% | 1012.4 hPa | 0 mm | 1.34 m/s, 250° | 298 W/m² | - |
| 1778002710 | 10° C | 39% | 1012.3 hPa | 0 mm | 2.24 m/s, 305° | 256 W/m² | - |
| 1778002407 | 10° C | 39% | 1012.3 hPa | 0 mm | 1.79 m/s, 335° | 294 W/m² | - |
| 1778002104 | 9.44° C | 39% | 1012.3 hPa | 0 mm | 0.45 m/s, 283° | 238 W/m² | - |
| 1778001802 | 9.44° C | 39% | 1012.4 hPa | 0 mm | 1.34 m/s, 261° | 296 W/m² | - |
| 1778001501 | 9.44° C | 39% | 1012.2 hPa | 0 mm | 1.79 m/s, 328° | 184 W/m² | - |
| 1778001199 | 10° C | 40% | 1011.8 hPa | 0 mm | 1.79 m/s, 263° | 168 W/m² | - |
| 1778000895 | 10° C | 39% | 1012.2 hPa | 0 mm | 1.34 m/s, 263° | 225 W/m² | - |
| 1778000592 | 10° C | 38% | 1012.3 hPa | 0 mm | 0.89 m/s, 272° | 335 W/m² | - |
| 1778000287 | 10° C | 40% | 1012 hPa | 0 mm | 0.89 m/s, 290° | 332 W/m² | - |
| 1777999983 | 10° C | 43% | 1012.2 hPa | 0 mm | 1.34 m/s, 262° | 271 W/m² | - |
| 1777999679 | 9.44° C | 42% | 1012.3 hPa | 0 mm | 0.89 m/s, 302° | 276 W/m² | - |
| 1777999376 | 8.89° C | 43% | 1012.1 hPa | 0 mm | 0.89 m/s, 296° | 173 W/m² | - |
| 1777999074 | 8.89° C | 43% | 1012.1 hPa | 0 mm | 2.24 m/s, 269° | 135 W/m² | - |
* Rain latest hour (hover to see other rain measurements)
** Current wind speed in m/s (hover to see current wind gust speed)